Regional Weather Roundup
Issued by NWS

Home | Current Version | Previous Version | Text Only | Print | Product List | Glossary On
Versions: 1 2 3 4 5 6 7 8 9 10 11 12 13 14 15 16 17 18 19 20 21 22 23 24 25 26 27 28 29 30 31 32 33 34 35 36 37 38 39 40 41 42 43 44 45 46 47 48 49 50
000
ASUS44 KMEG 241210
RWRTN
TENNESSEE HOURLY STATE WEATHER ROUNDUP
NATIONAL WEATHER SERVICE MEMPHIS TN
600 AM CST FRI FEB 24 2017

TNZ002-004-019-021-049-052-054-088>092-241300-
WEST TENNESSEE

CITY           SKY/WX    TMP DP  RH WIND       PRES   REMARKS
MEMPHIS INTL   PTCLDY    60  56  86 S12       29.67S
NWS MEMPHIS      N/A     62 N/A N/A MISG        N/A
JACKSON        CLEAR     62  58  86 S13       29.69R
UNION CITY     CLEAR     61  61 100 S10       29.63S
PARIS          CLEAR     57  54  88 S8        29.67F
HUNTINGDON     CLEAR     63  57  82 S12       29.68R
$$

TNZ008-025-027-028-033-062-065-066-241300-
NORTH MIDDLE TENNESSEE

CITY           SKY/WX    TMP DP  RH WIND       PRES   REMARKS
NASHVILLE      PTCLDY    62  55  77 SE8       29.75S
PORTLAND       PTCLDY    61  55  82 S12       29.74S
CLARKSVILLE    CLEAR     63  55  75 S10       29.70R
SMYRNA         PTCLDY    60  55  83 SE5       29.77S
COOKEVILLE     PTCLDY    61  52  72 S7        29.79S
GALLATIN       CLOUDY    61  55  82 S7        29.78S
CROSSVILLE     PTCLDY    59  49  69 S10       29.85S
$$

TNZ061-075-076-078-094-096-097-241300-
SOUTH MIDDLE TENNESSEE

CITY           SKY/WX    TMP DP  RH WIND       PRES   REMARKS
FAYETTEVILLE   PTCLDY    59  55  88 S10       29.80S
TULLAHOMA      CLEAR     61  54  77 S9        29.81S
WINCHESTER     CLEAR     61  54  77 S5        29.83R
MCMINNVILLE    CLEAR     64  55  72 S8        29.79F
COLUMBIA       CLEAR     63  63 100 S12       29.74S
SHELBYVILLE    CLEAR     63  57  82 S10       29.79S
$$

TNZ017-018-042-046-047-241300-
NORTHEAST TENNESSEE

CITY           SKY/WX    TMP DP  RH WIND       PRES   REMARKS
TRI CITIES     MOCLDY    45  43  93 CALM      29.89R
ELIZABETHTON   PTCLDY    48  46  93 NE5       29.90R
$$

TNZ012-013-036-069-073-074-241300-
CENTRAL EAST TENNESSEE

CITY           SKY/WX    TMP DP  RH WIND       PRES   REMARKS
KNOXVILLE      PTCLDY    50  48  93 NE5       29.85S
OAK RIDGE      CLEAR     50  48  93 CALM      29.87R
GATLINBURG     CLEAR     43  43 100 CALM      29.87R
MORRISTOWN     CLEAR     50  48  93 CALM      29.86S
JACKSBORO      PTCLDY    54  48  82 CALM      29.88R
$$

TNZ083-085-099-241300-
SOUTHEAST TENNESSEE

CITY           SKY/WX    TMP DP  RH WIND       PRES   REMARKS
CHATTANOOGA    PTCLDY    51  48  89 CALM      29.86S
$$

SKY/WX REPORTED AS FAIR MEANS FEW OR NO CLOUDS BELOW
12 THOUSAND FEET.





USA.gov is the U.S. government's official web portal to all federal, state and local government web resources and services.